Location: *
(46.3500°N, 10.9000°E)
Time: 01:01:07
(UTC+00:00)

Vanguard 2 - Pass Details

Date: 22 April 2021
Orbit: 552 x 2938 km, 32.9° (Epoch: 12 May)

Event Time Altitude Azimuth Distance (km) Brightness Sun altitude
Rises 15:04:22 0° 266° (W) 6,083 13.2 31.3°
Reaches altitude 10° 15:09:28 10° 258° (WSW) 4,695 13.2 30.4°
Maximum altitude 15:19:25 30° 205° (SSW) 2,535 11.0 28.8°
Drops below altitude 10° 15:26:05 10° 147° (SSE) 3,078 10.5 27.6°
Sets 15:28:42 0° 136° (SE) 3,757 10.8 27.2°
